Regional Weather Roundup
Issued by NWS

Home | Current Version | Previous Version | Text Only | Print | Product List | Glossary On
Versions: 1 2 3 4 5 6 7 8 9 10 11 12 13 14 15 16 17 18 19 20 21 22 23 24 25 26 27 28 29 30 31 32 33 34 35 36 37 38 39 40 41 42 43 44 45 46 47 48 49 50
000
ASUS42 KFFC 251510
RWRGA
WEATHER ROUNDUP FOR GEORGIA
NATIONAL WEATHER SERVICE PEACHTREE CITY GA
1100 AM EDT TUE JUL 25 2017

NOTE: "FAIR" INDICATES FEW OR NO CLOUDS BELOW 12,000 FEET WITH NO
SIGNIFICANT WEATHER AND/OR OBSTRUCTIONS TO VISIBILITY.

* = USE WITH CAUTION. THE STATIONS MARKED WITH AN ASTERISK MAY NOT
REPORT WEATHER SUCH AS PRECIPITATION, FOG, OR THUNDER AND ARE NOT
QUALITY CONTROLLED BY NWS.

THE REMARK "TC" DENOTES TEMPERATURE READING IN DEGREES CELSIUS.

GAZ001>058-251600-
NORTH GEORGIA

CITY           SKY/WX    TMP DP  RH WIND       PRES   REMARKS
ATLANTA        CLOUDY    81  74  79 VRB3      30.12S
ATHENS         CLOUDY    84  75  74 CALM      30.11R HX  92
CHAMBLEE       CLOUDY    83  73  72 N5        30.12S
PEACHTREE CITY LGT RAIN  77  75  93 W3        30.13S
ROME           MOSUNNY   83  76  79 CALM      30.10F HX  91
WEST ATLANTA   CLOUDY    83  76  79 N3        30.11S HX  91
GAINESVILLE    CLOUDY    86  70  58 E5        30.15S HX  90
CARTERSVILLE   CLOUDY    83  77  82 VRB3      30.12F HX  92


CITY           SKY/WX    TMP DP  RH WIND       PRES   REMARKS
LAWRENCEVILLE* SUNNY     82  75  78 CALM      30.13S
MARIETTA       PTSUNNY   83  73  71 NW5       30.12S
KENNESAW*      PTSUNNY   81  72  74 NW5       30.13S
CANTON*        CLOUDY    82  75  78 CALM      30.14F
$$

GAZ059>098-102>109-251600-
CENTRAL GEORGIA

CITY           SKY/WX    TMP DP  RH WIND       PRES   REMARKS
AUGUSTA-BUSH   SUNNY     87  75  67 CALM      30.07F HX  96
AUGUSTA-DANIEL SUNNY     86  70  58 W3        30.09F HX  90
COLUMBUS       TSTM      75  72  90 NW6       30.12S FOG
MACON          CLOUDY    81  75  82 SW3       30.10F
ROBINS AFB     CLOUDY    81  75  81 CALM      30.09F


CITY           SKY/WX    TMP DP  RH WIND       PRES   REMARKS
LAGRANGE*      LGT RAIN  77  77  99 CALM      30.14R
SYLVANIA*      CLOUDY    83  79  85 W5        30.09F HX  94
MILLEDGEVILLE* CLOUDY    82  73  74 W5        30.10S
$$

GAZ099>101-110>166-251600-
SOUTH GEORGIA

CITY           SKY/WX    TMP DP  RH WIND       PRES   REMARKS
SAVANNAH       CLOUDY    84  73  69 W6        30.09S HX  90
VALDOSTA       MOSUNNY   86  75  69 CALM      30.11F HX  95
ALMA           CLOUDY    84  75  74 W7        30.11S HX  92
ST SIMONS      MOSUNNY   85  76  74 VRB6      30.10S HX  94
FT STEWART     CLOUDY    85  75  72 W7        30.07F HX  93
ALBANY         PTSUNNY   83  74  74 W8        30.12F
HUNTER AFB     CLOUDY    83  76  78 NW7       30.07S HX  91
MOODY AFB      SUNNY     87  72  60 SW9       30.10F HX  93
BRUNSWICK      PTSUNNY   84  79  84 W8        30.11S HX  96


CITY           SKY/WX    TMP DP  RH WIND       PRES   REMARKS
BAINBRIDGE*    MOSUNNY   86  79  79 W9        30.11F HX  99
MOULTRIE*      MOSUNNY   82  72  69 W9        30.12F
VIDALIA*       CLOUDY    84  75  74 CALM      30.11S HX  92
WAYCROSS*      MOSUNNY   88  80  77 W5        30.11S HX 105
DOUGLAS*       MOSUNNY   84  72  65 W6        30.12F
$$




USA.gov is the U.S. government's official web portal to all federal, state and local government web resources and services.